Vorticity
nan nan nan nan nan nan nan nan nan nan nan nan nan nan nan nan nan nan nan nan nan nan nan nan nan nan nan nan nan nan nan nan nan nan nan nan nan nan nan nan nan nan nan nan nan nan nan
nan 7 7 7 7 7 7 7 7 7 7 7 7 7 7 7 7 8 7 8 9 10 13 12 10 9 9 6 15 11 9 7 8 5 7 4 5 4 2 4 7 13 8 6 2 5 nan
nan 7 7 7 7 7 7 7 7 7 7 7 7 7 7 7 8 8 7 8 10 11 13 13 10 7 7 15 7 10 5 5 4 3 5 7 3 7 7 6 6 8 7 8 12 6 nan
nan 8 8 8 7 8 7 7 7 7 7 7 7 7 7 7 8 8 9 8 11 12 9 9 7 8 9 15 9 12 5 5 5 5 5 9 9 6 7 6 12 10 9 8 14 2 nan
nan 8 8 9 8 7 7 7 7 7 7 7 7 8 8 8 8 10 9 10 20 13 8 7 6 6 8 7 14 10 5 5 6 9 10 6 12 11 11 7 12 8 11 10 4 10 nan
nan 9 8 8 8 7 7 8 8 7 7 8 8 7 8 8 8 8 16 26 18 12 10 3 8 8 17 11 17 9 7 6 6 7 6 9 7 11 8 7 6 4 5 11 8 21 nan
nan 8 8 7 8 8 8 7 7 7 7 7 8 8 7 8 8 10 22 20 14 10 4 1 5 5 3 13 13 12 10 6 5 5 8 7 4 6 7 4 -3 2 6 17 9 2 nan
nan 8 8 8 7 7 8 7 7 8 8 7 8 8 8 8 8 18 15 6 6 5 11 12 3 7 4 7 3 11 8 6 6 4 6 3 7 8 7 4 7 9 9 6 4 13 nan
nan 8 8 7 7 7 7 7 7 7 7 8 8 9 9 8 23 25 6 9 3 13 13 17 25 16 13 3 6 7 9 4 3 5 6 2 9 10 7 8 9 7 7 9 6 11 nan
nan 7 7 7 6 7 7 7 7 8 8 8 8 8 6 23 21 10 18 7 6 11 14 27 21 19 15 8 13 11 15 0 2 10 6 6 5 3 9 12 8 9 10 8 6 9 nan
nan 6 6 6 7 7 6 6 8 8 8 8 8 9 15 21 12 5 6 3 11 11 10 23 14 9 15 1 12 27 7 5 4 2 6 8 9 12 6 9 8 5 3 10 11 10 nan
nan 6 5 5 7 8 7 7 8 8 8 8 8 7 20 22 10 4 2 11 14 12 13 4 8 5 8 3 -2 18 8 5 5 9 6 7 7 10 12 7 8 9 9 8 7 12 nan
nan 6 5 6 7 8 7 7 7 8 8 9 9 12 15 11 2 5 18 17 11 8 4 10 9 9 8 7 10 7 11 5 5 6 10 12 9 5 8 12 11 7 8 8 10 12 nan
nan 6 7 9 8 7 8 7 7 8 8 10 9 27 22 5 6 7 10 12 7 9 -2 1 17 16 9 7 7 7 7 8 8 -0 7 11 12 13 5 9 10 9 6 5 5 -1 nan
nan 7 8 8 8 8 9 8 7 7 8 12 27 28 10 14 14 8 13 7 6 -3 6 15 8 2 9 9 13 14 7 9 10 7 -1 4 11 14 14 7 7 7 11 4 6 8 nan
nan 7 8 8 8 9 8 8 8 8 10 17 27 16 23 22 11 6 8 8 3 -5 5 15 13 12 9 8 12 10 10 8 12 11 3 2 7 11 19 12 5 7 7 10 10 9 nan
nan 8 8 9 9 9 10 9 8 7 10 29 25 12 21 16 5 7 10 8 1 1 10 13 9 9 7 14 15 11 3 11 14 12 9 9 5 11 10 11 8 8 4 5 11 12 nan
nan 9 9 8 9 9 10 9 8 7 22 31 17 14 12 3 4 7 10 3 1 14 12 4 2 6 11 13 11 13 12 16 18 17 11 6 11 10 12 10 7 8 14 8 7 6 nan
nan 8 9 9 9 11 10 8 9 10 20 19 14 17 9 5 6 7 8 8 10 9 6 11 9 8 7 8 12 11 6 8 24 12 15 17 3 9 12 14 19 11 8 9 -0 4 nan
nan 9 10 10 8 9 9 8 8 8 15 21 15 15 11 8 7 7 10 17 12 8 14 8 6 8 9 11 6 7 10 7 10 3 5 12 14 12 4 -1 9 16 7 9 8 10 nan
nan 8 8 9 8 9 10 8 8 8 19 26 11 2 12 18 14 10 6 6 16 18 8 5 11 12 11 7 12 9 4 10 6 8 5 5 9 10 4 1 2 13 17 10 9 4 nan
nan 9 8 8 11 13 9 8 8 8 29 26 6 7 7 10 8 16 22 15 6 12 12 7 9 10 9 9 10 10 8 9 10 10 6 7 9 8 8 10 14 9 7 12 16 8 nan
nan 10 10 11 11 10 8 8 9 11 27 18 11 11 11 11 12 13 10 16 13 4 11 16 10 11 13 16 9 10 5 9 14 10 17 11 8 11 12 11 7 8 15 15 9 9 nan
nan 10 9 8 8 8 8 10 11 10 19 15 11 14 13 11 12 6 12 19 18 14 11 13 14 9 10 11 18 17 13 9 9 8 6 16 14 12 11 12 14 12 3 12 19 23 nan
nan 11 8 7 8 8 9 10 10 10 14 17 13 12 11 10 7 9 7 17 20 25 17 9 7 10 11 11 15 11 11 9 10 11 8 3 6 15 11 9 13 13 14 4 15 14 nan
nan 7 6 7 8 9 9 10 11 10 14 17 12 13 9 12 5 2 11 17 14 21 20 12 4 6 9 15 13 10 11 12 13 10 9 5 7 6 10 13 6 11 16 6 12 12 nan
nan 9 9 9 9 9 9 9 9 10 13 19 12 12 11 11 5 1 11 9 8 15 16 14 23 15 10 9 10 14 9 13 17 12 9 9 9 8 8 6 6 21 11 8 11 5 nan
nan 9 10 11 10 9 10 9 9 9 13 17 13 11 12 10 9 3 3 7 9 8 7 14 19 14 11 14 13 13 13 17 14 18 21 10 10 8 15 18 14 10 13 9 15 12 nan
nan nan nan nan nan nan nan nan nan nan nan nan nan nan nan nan nan nan nan nan nan nan nan nan nan nan nan nan nan nan nan nan nan nan nan nan nan nan nan nan nan nan nan nan nan nan nan
CAPE
1 2 2 1 1 2 1 2 1 1 1 0 0 0 0 0 0 0 0 0 1 2 0 0 0 1 0 0 0 0 68 5 0 0 0 0 0 0 0 0 0 15 93 68 171 159 139
3 1 2 1 2 2 2 1 2 1 0 0 0 0 0 0 0 0 0 0 1 2 0 0 1 0 0 0 0 0 0 0 0 0 0 0 0 0 0 0 0 0 140 211 60 129 85
1 2 1 1 2 3 2 2 2 1 1 1 0 0 0 0 0 0 0 0 0 2 1 1 0 0 0 0 0 0 0 0 0 0 0 0 0 0 0 0 0 0 0 136 150 103 213
3 4 3 4 3 2 4 3 3 1 1 1 1 0 0 0 0 0 0 0 0 2 0 0 0 0 0 0 0 0 0 0 0 0 0 0 0 0 0 0 2 103 38 85 149 236 272
2 2 2 2 1 3 2 2 2 1 1 1 0 0 0 0 0 0 0 0 0 2 2 1 0 0 0 0 0 0 0 0 0 0 0 0 0 0 0 0 10 43 75 8 21 277 119
5 2 3 2 4 4 3 3 2 1 0 1 1 1 1 0 0 0 0 0 0 0 0 0 0 0 0 0 0 0 0 0 0 0 0 0 0 0 0 9 184 13 87 11 0 0 151
6 3 2 3 6 6 4 2 1 1 0 0 0 1 1 1 0 0 0 0 0 36 0 0 0 0 0 0 0 0 0 0 0 0 0 0 0 0 0 0 5 15 81 56 186 117 150
6 3 5 4 5 2 4 3 2 1 0 0 0 1 1 1 0 0 0 0 0 0 0 0 0 0 0 0 0 0 0 0 0 0 0 0 0 0 0 0 0 3 0 40 107 144 115
5 12 6 7 3 2 3 3 2 1 0 0 1 2 2 1 0 0 0 0 0 0 0 0 0 0 0 0 0 0 0 0 0 0 0 0 0 0 0 0 0 0 0 0 13 1 138
15 15 10 4 3 3 2 1 1 1 0 1 1 1 1 1 0 0 0 0 0 0 0 0 0 0 0 0 0 0 0 0 0 0 0 0 0 0 0 0 0 0 0 0 0 0 9
19 15 6 5 4 5 3 1 0 0 1 0 0 1 0 1 0 0 0 0 0 0 0 0 0 0 0 0 0 0 0 0 0 0 0 0 0 0 0 0 0 0 0 0 0 0 0
20 14 6 0 1 1 3 0 1 1 0 0 0 0 1 0 0 0 0 0 0 0 0 0 0 0 0 0 0 0 0 0 0 0 0 0 0 0 0 0 0 0 0 0 0 0 0
17 12 1 1 0 2 2 0 0 0 0 0 0 0 1 0 0 0 0 0 0 0 0 0 0 0 0 0 0 0 0 0 0 0 0 0 0 0 0 0 0 0 0 0 0 0 0
18 7 5 2 1 4 3 1 0 0 0 0 0 0 0 0 0 0 0 0 0 0 0 0 0 0 0 0 0 0 0 0 0 0 0 4 4 0 0 0 0 0 0 0 83 79 66
8 10 10 4 3 6 8 4 0 0 0 0 0 0 0 0 0 0 0 0 0 0 0 0 0 0 0 0 0 0 0 0 0 0 48 0 9 44 0 0 0 0 0 0 0 0 74
15 14 20 18 15 14 14 5 0 0 0 0 0 0 0 0 0 0 0 0 0 0 0 0 0 0 0 0 0 0 0 0 0 0 0 11 10 0 0 0 0 0 0 0 0 0 76
6 8 8 35 22 16 15 9 0 0 0 0 0 0 0 0 0 0 0 0 0 0 0 0 0 0 0 0 0 0 0 0 0 0 0 0 0 0 3 0 0 0 0 0 0 25 89
2 5 22 35 32 22 18 0 0 0 0 0 0 0 0 0 0 0 0 0 0 0 0 0 0 0 0 0 0 0 0 0 0 0 0 0 0 0 8 0 0 0 0 0 8 346 167
12 11 12 29 34 30 17 1 0 0 0 0 0 0 0 0 0 0 0 0 0 0 0 0 0 0 0 0 0 0 0 0 0 0 12 6 3 0 1 25 1 0 0 0 32 343 370
15 11 21 20 31 37 25 3 0 0 0 0 0 0 0 0 0 0 0 0 0 0 0 0 0 0 0 0 0 0 0 0 0 0 667 34 50 18 4 69 78 7 0 0 29 65 42
11 15 27 30 27 26 24 7 0 0 0 0 0 0 14 9 0 0 0 0 0 0 0 0 0 0 0 0 0 0 0 0 0 0 0 19 497 88 1 39 75 86 50 3 0 20 25
25 27 5 15 30 35 22 8 5 0 0 0 3 0 1 0 0 0 0 0 0 0 0 0 0 0 0 0 0 0 0 0 0 10 0 7 263 102 48 32 41 63 67 26 1 0 20
32 14 15 24 35 33 17 13 12 0 0 0 0 0 0 0 0 0 7 10 0 0 0 0 0 0 0 0 0 0 0 13 11 13 70 120 225 575 109 30 31 95 74 101 13 5 13
23 16 29 18 15 13 8 8 23 9 1 0 3 0 0 0 0 0 14 20 18 5 0 0 0 2 1 0 0 0 0 0 19 36 65 580 911 313 158 241 89 115 190 150 162 38 28
30 25 13 7 7 9 6 6 20 18 6 0 2 2 1 2 9 64 65 19 100 67 3 0 13 11 1 0 0 0 0 0 0 0 34 353 519 242 160 113 44 273 170 30 282 31 79
12 19 15 6 11 10 12 18 20 21 10 0 4 4 6 3 2 39 11 41 106 94 84 11 2 2 0 0 0 11 13 0 0 0 0 36 872 193 295 85 32 163 209 311 301 72 935
14 13 15 8 11 17 20 27 19 14 11 1 1 3 4 0 1 1 1 14 10 10 136 171 79 25 0 0 0 7 0 16 15 8 4 48 199 111 3 39 88 435 408 277 19 640 1006
11 14 15 19 22 22 23 22 11 16 9 1 1 2 1 0 0 0 0 0 3 18 81 81 165 96 55 0 0 0 7 36 275 260 422 189 295 84 161 123 60 299 100 49 1461 1112 1462
7 17 24 25 15 6 16 22 20 19 17 4 3 1 2 0 0 0 0 0 0 0 1 22 14 132 112 140 95 123 133 138 242 89 149 214 287 421 647 719 958 1454 1468 1414 1204 1203 1498